Location: Newark
(34.0635°N, 86.7609°W)
Time: 13:44:33
(UTC+00:00)

Hubble Space Telescope - Visible Passes

Search period start: 07 December 2019 00:00
Search period end: 17 December 2019 00:00
Orbit: 536 x 540 km, 28.5° (Epoch: 06 December)

Date Brightness Start Highest point End Pass type
(mag) Time Alt. Az. Time Alt. Az. Time Alt. Az.
11 Dec 3.5 12:09:13 10° SSW 12:11:45 16° SSE 12:14:18 10° ESE visible
12 Dec 3.3 11:58:07 10° SSW 12:01:03 19° SSE 12:04:00 10° ESE visible
13 Dec 3.0 11:47:08 10° SW 11:50:22 22° SSE 11:53:36 10° ESE visible
14 Dec 2.7 11:36:16 10° SW 11:39:42 25° SSE 11:43:08 10° ESE visible
15 Dec 2.4 11:25:33 11° SW 11:29:01 28° SSE 11:32:37 10° ESE visible
16 Dec 2.2 11:15:54 17° SW 11:18:22 32° S 11:22:04 10° ESE visible
